Location: Harmony
(28.2000°N, 81.1500°W)
Time: 08:56:50
(UTC-04:00)

RESURS DK-1 - Pass Details

Date: 18 December 2017
Orbit: 558 x 561 km, 69.9° (Epoch: 22 July)

Event Time Altitude Azimuth Distance (km) Brightness Sun altitude
Rises 17:56:56 0° 183° (S) 2,726 6.3 -5.8°
Reaches altitude 10° 17:59:13 10° 176° (S) 1,834 5.3 -6.3°
Maximum altitude 18:03:03 39° 107° (ESE) 842 2.9 -7.0°
Drops below altitude 10° 18:06:54 10° 38° (NE) 1,843 4.5 -7.8°
Enters shadow 18:07:51 - 34° (NNE) 2,208 4.9 -8.0°
